Погода в Скривери

Погода в Скривери : погода сейчас, прогноз погоды и архив. Всё, что Вы хотите узнать о погоде в Скривери!

Поиск расширенной информации на нашем сайте:

Другие новости

Новости СМИ2

Главная страница сайта

Новости сайта

03.07.2017

Напоминаем, что на нашем специализированном сайте Метеоцентр.Азия вы можете получить высокодетализированные автоматические прогнозы погоды по пунктам России, СНГ и мира в авиационном формате (включающие направление и скорость ветра, видимость, явления погоды, количество и форму облачности, нижнюю и верхнюю границу облачности).


Погода в Скривери - сегодня

Время (UTC), дата Ветер
(°,м/с) 
Видим.   Явления Облачность Т
(°С)
Тd
(°С)
f(%) Тe
(°С)
Pmin
(гПа)
dP
(гПа)
Po
(мм)
O2
(г/м3)
Тmin Tmax R s Состояние
почвы
03 17.10.17 270 (З) 10 км    10/10 300 м 
[St]
+10.9 +10.5 97 +14  1018.2  1.1  756  290           
06 17.10.17 230 (ЮЗ) 0700 м  туман  ?/?  
+10 +9.9 99 +11  1019.4  1.1  757  292  +10         
09 17.10.17 210 (ЮЗ) 4000 м  дымка{туман}  10/10 180 м 
[St]
+10.8 +10.7 99 +12  1018.2  -1.1  756  290           
12 17.10.17 210 (ЮЗ) 10 км  {ливн. осадки, туман}  10/10 360 м 
[St]
+12.2 +11.5 95 +15  1016.1  -2  755  289           
15 17.10.17 220 (ЮЗ) 4{11}  10 км    10/10 420 м 
[St]
+13.3 +11.5 89 +16  1013.5  -2.6  753  286           
18 17.10.17 220 (ЮЗ) 4{11}  20000 м    10/10 420 м 
[St]
+13.8 +12.6 92 +18  1011.2  -2.2  751  285    +13.8       
21 17.10.17 270 (З) 6-13{13}  20000 м    10/10 630 м 
[Sc]
+13.5 +9.7 78 +14  1010.3  -0.9  750  285           
00 18.10.17 240 (ЮЗ) 3{13}  н/о    н/о 
+11.8 +10 89 +13  1009.8  -0.6  750  288           
03 18.10.17 230 (ЮЗ) 20000 м    4/0 средняя 
[Ac trans]
+10.8 +9.3 90 +10  1008.6  -1.2  749  288           
06 18.10.17 230 (ЮЗ) 4{10}  20000 м    8/0 средняя 
[Ac As]
+10.7 +8.6 87 +10  1008.2  -0.4  749  288  +10.5         
09 18.10.17 260 (З) 5-10{10}  20000 м    10/10 700 м 
[Sc]
+12.3 +8.9 80 +11  1008.7  0.5  749  287           
12 18.10.17 240 (ЮЗ) 4{10}  10 км  слаб. ливневой дождь  10/10 400 м кучево-дожд. 
[Cb cap]
+11.8 +10.6 92 +13  1009.7  750  288           
15 18.10.17 320 (СЗ) 20000 м  {ливн. осадки}  10/10 800 м 
[Sc]
+10.4 +9.6 95 +11  1011.5  1.7  751  289           
18 18.10.17 290 (З) 10 км  местами туман поземный{ливн. осадки}  3/0 верхняя 
[Cs]
+6.8 +6.4 97 +8  1013.8  2.2  753  294    +12.4     
21 18.10.17 270 (З) 10 км  местами туман поземный  ясно 
+4.9 +4.8 99 +6  1015.4  1.5  754  297           
00 19.10.17 270 (З) 10 км  местами туман поземный  ясно 
+3 +2.9 99 +4  1016.7  1.2  755  300           
03 19.10.17 тихо ()   1000 м  дымка  10/10 150 м 
[St]
+0.9 +0.8 99 +1  1017.6  0.8  755  302           
06 19.10.17 тихо ()   0500 м  туман  3/0 средняя 
[Ac trans]
+0.2 +0.1 99 1018.8  1.2  756  304  -0.3         
09 19.10.17 260 (З) 20000 м  {туман}  ясно 
+8.6 +8.5 99 +10  1019.7  1.2  757  293           
12 19.10.17 270 (З) 20000 м  {туман}  3/3 1000 м 
[Cu med, cong]
+11.8 +2.7 54 +12  1019.9  0.3  758  292           
15 19.10.17 320 (СЗ) 20000 м    3/3 1000 м 
[Cu med, cong]
+9.2 +3.5 67 +10  1020.6  0.6  758  294           
18 19.10.17 тихо ()   20000 м    ясно 
+2.9 +2.4 97 +3  1021.6  0.8  758  301    +12.2       
21 19.10.17 тихо ()   0500 м  туман  ясно 
+0 -0.1 99 1022.6  0.8  759  305           
00 20.10.17 тихо ()   4000 м  дымка{туман}  8/8 1200 м 
[Sc]
+1.8 +1.7 99 +2  1022.9  0.4  760  304           
03 20.10.17 тихо ()   10 км    ясно 
+0.2 +0.1 99 1023.4  0.4  760  305           
Время (UTC), дата Ветер
(°,м/с) 
Видим.   Явления Облачность Т
(°С)
Тd
(°С)
f(%) Тe
(°С)
Pmin
(гПа)
dP
(гПа)
Po
(мм)
O2
(г/м3)
Тmin Tmax R s Состояние
почвы

Для получения пояснительной информации подведите курсор к названию столбца.

ПОГОДА в Скривери - архив

Всё, что Вы хотите узнать о погоде в Скривери - удобно и подробно!

Выберите нужную дату (начиная с 1 января 2015* года) и нажмите кнопку "Найти".
Будут отображены архивные сводки погоды по пункту Скривери, начиная с указанной даты.


Отображать данные в формате CSV (для использования в таблицах Excel)


Внимание! Наш архив погоды предназначен исключительно для личного некоммерческого использования в познавательных целях. Если Вам необходимы официальные справки о состоянии погоды (для производственных, юридических, коммерческих и т.п. целей), обращайтесь в органы Росгидромета.

*Примечание: данная дата относится к архиву по метеостанциям СССР (Россия, СНГ, Балтия).
Архив по метеостанциям Зарубежной Европы и Азии (кроме Китая) хранится 10 дней, по другим регионам земного шара (Китай, Африка, Америка, Австралия, Океания) - 1 день.

Скривери - район местоположения метеостанции


Название, широта, долгота, высота метеостанции:
Скривери 56.6°ш. 25.1°д. 83 м над ур. моря [Латвия]

Дополнительная информация

В oтличие oт бoльшинства пoгoдных сайтoв мы публикуем пoдрoбную метеoинфoрмацию в детальнoм прoфессиoнальнoм фoрмате.

Характеристики температуры и влажнoсти вoздуха измеряются на высoте 2 м в тени вдали oт зданий и деревьев.
Скoрoсть ветра измеряется на высoте 10 м (на урoвне рoста челoвека скoрoсть ветра ниже в 1.5-2 раза). Если метеoстанция нахoдится в гoрoде или в лесу, тo скoрoсть ветра занижена на 2-4 м/с пo сравнению с oткрытым местoм. Скoрoсть ветра над акватoриями крупных рек и oзёр, а также на вершинах хoлмoв на 2-5 м/с выше, чем в oбычных услoвиях.
Атмoсфернoе давление в разных тoчках местнoсти мoжет значительнo oтличаться oт давления на метеoстанции, в зависимoсти oт услoвий рельефа (при пoдъёме на 10 м давление пoнижается примернo на 1 мм рт.ст.).